1483887600.98,22994,4.69,72608.8,-18.95,-50.33,-50.83,0,*6A
1483887602.21,22995,4.63,72604.0,-18.95,-50.39,-50.89,0,*6B
1483887603.46,22996,4.69,72606.5,-18.95,-50.39,-50.83,0,*62
1483887604.7,22997,4.63,72604.5,-18.95,-50.25,-50.75,0,*67
1483887605.96,22998,4.63,72604.0,-18.95,-50.39,-50.83,0,*6C
1483887607.19,22999,4.69,72602.0,-18.95,-50.39,-51.05,0,*62
1483887608.44,23000,4.63,72602.3,-18.95,-50.61,-51.05,0,*67
1483887609.72,23001,4.69,72598.5,-18.95,-50.83,-51.25,0,*68
1483887611.0,23002,4.69,72594.8,-18.95,-50.83,-51.25,0,*6B
1483887612.27,23003,4.69,72596.5,-18.99,-50.83,-51.25,0,*66
1483887613.52,23004,4.69,72592.0,-18.99,-50.61,-51.11,0,*6A
1483887614.74,23005,4.69,72588.5,-18.99,-50.75,-51.11,0,*6E
1483887615.98,23006,4.63,72582.3,-18.99,-50.53,-51.11,0,*69
1483887617.23,23007,4.69,72580.0,-18.99,-50.61,-51.05,0,*6C
1483887618.48,23008,4.63,72574.3,-18.99,-50.61,-51.05,0,*63
1483887619.74,23009,4.69,72572.3,-19.01,-50.67,-51.19,0,*69
1483887620.99,23010,4.63,72564.5,-19.01,-50.67,-51.11,0,*69
1483887622.28,23011,4.69,72554.5,-19.01,-50.67,-51.33,0,*68
1483887623.55,23012,4.69,72554.8,-19.01,-50.61,-50.97,0,*62
1483887624.85,23013,4.63,72560.3,-19.01,-50.25,-50.83,0,*66
1483887626.15,23014,4.69,72564.5,-19.01,-50.25,-50.83,0,*61
1483887627.44,23015,4.69,72548.8,-19.01,-50.25,-50.83,0,*60
1483887628.74,23016,4.69,72554.5,-19.01,-50.25,-50.83,0,*63
1483887630.02,23017,4.63,72566.3,-19.01,-50.39,-50.83,0,*6F
1483887631.32,23018,4.69,72572.8,-19.01,-50.17,-50.61,0,*60
1483887632.6,23019,4.69,72564.0,-19.01,-50.25,-50.67,0,*66
1483887633.88,23020,4.69,72560.5,-19.01,-50.03,-50.47,0,*6A
1483887635.13,23021,4.63,72564.5,-19.01,-49.97,-50.47,0,*6E
1483887636.39,23022,4.69,72566.8,-19.01,-49.97,-50.39,0,*64
1483887637.65,23023,4.63,72574.5,-19.01,-49.97,-50.39,0,*65
1483887638.96,23024,4.63,72578.5,-19.01,-50.03,-50.61,0,*6A
1483887640.25,23025,4.69,72590.8,-19.01,-50.03,-50.67,0,*6D
1483887641.52,23026,4.63,72584.8,-19.01,-50.17,-50.67,0,*6B
1483887642.8,23027,4.69,72588.8,-19.01,-50.17,-50.67,0,*6A
1483887644.07,23028,4.69,72602.3,-19.01,-50.25,-50.67,0,*64
1483887645.37,23029,4.69,72588.3,-19.01,-50.17,-50.83,0,*6E
1483887646.65,23030,4.69,72590.3,-19.01,-50.17,-50.67,0,*6C
1483887647.92,23031,4.69,72584.0,-19.01,-50.17,-50.67,0,*6D
1483887649.2,23032,4.63,72578.8,-19.01,-50.17,-50.67,0,*6E
1483887650.5,23033,4.63,72590.3,-19.01,-50.17,-50.61,0,*69
1483887651.76,23034,4.63,72590.5,-19.01,-49.97,-50.39,0,*63
1483887653.02,23035,4.69,72580.0,-19.01,-49.97,-50.39,0,*62
1483887654.3,23036,4.69,72580.5,-19.01,-50.03,-50.39,0,*64
1483887655.56,23037,4.69,72598.5,-19.01,-49.97,-50.47,0,*69
1483887656.81,23038,4.69,72604.5,-19.01,-49.81,-50.47,0,*61
1483887658.07,23039,4.63,72598.8,-19.01,-49.97,-50.47,0,*67
1483887659.35,23040,4.69,72598.3,-19.01,-50.03,-50.47,0,*6C
1483887660.63,23041,4.69,72596.0,-19.01,-50.03,-50.67,0,*6F
1483887661.94,23042,4.69,72596.5,-19.01,-50.03,-50.61,0,*6A
1483887663.25,23043,4.69,72588.8,-19.01,-50.03,-50.61,0,*6B
1483887664.54,23044,4.69,72590.0,-19.01,-50.03,-50.47,0,*68
1483887665.79,23045,4.69,72588.0,-19.01,-49.97,-50.47,0,*6C
1483887667.1,23046,4.69,72588.5,-19.01,-50.03,-50.61,0,*6E
1483887668.38,23047,4.69,72592.5,-19.01,-50.03,-50.47,0,*6B
1483887669.63,23048,4.69,72584.5,-19.01,-49.81,-50.47,0,*66
1483887670.89,23049,4.69,72580.0,-19.01,-49.81,-50.39,0,*6E
1483887672.19,23050,4.69,72584.3,-19.01,-49.61,-50.25,0,*65
1483887673.46,23051,4.69,72574.0,-19.01,-49.75,-50.25,0,*61
1483887674.72,23052,4.69,72578.0,-19.01,-49.81,-50.39,0,*64
1483887675.98,23053,4.69,72574.0,-19.01,-49.81,-50.39,0,*65
1483887677.23,23054,4.69,72580.0,-19.01,-49.97,-50.47,0,*6C
1483887678.52,23055,4.69,72590.0,-19.01,-50.03,-50.47,0,*68
1483887679.82,23056,4.69,72592.0,-19.01,-49.53,-50.03,0,*66
1483887681.11,23057,4.69,72586.3,-19.01,-49.61,-50.17,0,*63
1483887682.41,23058,4.69,72598.3,-19.01,-49.53,-50.17,0,*6D
1483887683.71,23059,4.69,72620.3,-19.01,-49.53,-50.03,0,*69
1483887685.01,23060,4.69,72596.5,-19.01,-49.53,-50.03,0,*63
1483887686.31,23061,4.63,72588.0,-19.01,-49.53,-50.17,0,*67
1483887687.58,23062,4.69,72580.0,-19.01,-49.75,-50.17,0,*60
1483887688.86,23063,4.69,72582.3,-19.01,-49.75,-50.03,0,*64
1483887690.14,23064,4.69,72572.3,-19.01,-49.75,-50.03,0,*63
1483887691.42,23065,4.69,72576.8,-19.01,-49.39,-49.97,0,*6F
1483887692.7,23066,4.69,72586.5,-19.01,-49.39,-49.81,0,*6B
1483887694.0,23067,4.69,72594.5,-19.01,-49.61,-50.03,0,*65
1483887695.29,23068,4.69,72588.5,-19.01,-49.61,-50.03,0,*6A
1483887696.59,23069,4.63,72592.5,-19.01,-49.61,-50.03,0,*6B
1483887697.87,23070,4.69,72608.8,-19.01,-49.75,-50.17,0,*63
1483887699.17,23071,4.69,72586.3,-19.01,-49.53,-50.03,0,*63
1483887700.46,23072,4.69,72590.3,-19.01,-49.61,-50.17,0,*64
1483887701.74,23073,4.69,72596.5,-19.01,-49.81,-50.25,0,*6A
1483887702.99,23074,4.69,72618.8,-19.01,-49.75,-49.97,0,*67
1483887704.29,23075,4.69,72618.3,-19.01,-49.53,-50.03,0,*67
1483887705.57,23076,4.69,72608.0,-19.01,-49.61,-49.97,0,*60
1483887706.85,23077,4.69,72598.0,-19.01,-49.53,-49.97,0,*60
1483887708.13,23078,4.69,72602.0,-19.01,-49.39,-49.81,0,*64
1483887709.43,23079,4.69,72604.8,-19.01,-49.53,-50.17,0,*6E
1483887710.72,23080,4.69,72602.3,-19.01,-49.61,-50.17,0,*69
1483887712.01,23081,4.69,72596.5,-19.01,-49.61,-50.25,0,*69
1483887713.29,23082,4.69,72572.8,-19.01,-49.75,-50.25,0,*6F
1483887714.56,23083,4.69,72558.5,-19.01,-49.75,-50.17,0,*6F
1483887715.84,23084,4.63,72588.3,-19.01,-49.75,-50.03,0,*6D
1483887717.1,23085,4.69,72616.5,-19.01,-49.33,-49.97,0,*6B
1483887718.35,23086,4.69,72596.8,-19.01,-49.33,-49.81,0,*6F
1483887719.65,23087,4.69,72614.3,-19.01,-49.61,-50.03,0,*6B
1483887720.93,23088,4.69,72614.5,-19.01,-49.81,-50.25,0,*6E
1483887722.18,23089,4.69,72606.3,-19.01,-49.81,-50.39,0,*62
1483887723.44,23090,4.69,72606.5,-19.01,-49.97,-50.47,0,*64
1483887724.69,23091,4.69,72610.3,-19.01,-49.81,-50.47,0,*62
1483887725.95,23092,4.69,72598.3,-19.01,-49.97,-50.47,0,*66
1483887727.2,23093,4.69,72590.3,-19.01,-49.97,-50.47,0,*67
1483887728.45,23094,4.69,72592.8,-19.01,-49.97,-50.47,0,*60
1483887729.73,23095,4.69,72600.5,-19.01,-50.03,-50.47,0,*64
1483887731.01,23096,4.69,72600.8,-19.01,-50.03,-50.47,0,*67
1483887732.3,23097,4.69,72602.5,-19.01,-50.03,-50.47,0,*66
1483887733.58,23098,4.69,72582.3,-19.01,-50.03,-50.39,0,*60
1483887734.84,23099,4.69,72572.5,-19.01,-49.97,-50.47,0,*6D
1483887736.11,23100,4.69,72578.5,-19.01,-49.81,-50.17,0,*6E
1483887737.39,23101,4.69,72602.5,-19.01,-49.75,-50.03,0,*61
1483887738.67,23102,4.69,72602.0,-19.01,-49.61,-49.97,0,*62
1483887739.92,23103,4.69,72590.3,-19.01,-49.75,-49.97,0,*66
1483887741.22,23104,4.63,72554.0,-19.01,-49.61,-50.17,0,*64
1483887742.47,23105,4.69,72578.5,-19.01,-49.75,-49.81,0,*67
1483887743.75,23106,4.69,72594.8,-19.01,-49.53,-49.97,0,*67
1483887745.05,23107,4.69,72572.0,-19.01,-49.53,-50.17,0,*66
1483887746.32,23108,4.69,72584.8,-19.01,-49.75,-50.17,0,*6D
1483887747.6,23109,4.69,72582.5,-19.01,-49.81,-50.25,0,*66
1483887748.88,23110,4.69,72586.5,-19.01,-49.61,-49.97,0,*61
1483887750.15,23111,4.63,72598.3,-19.01,-49.53,-49.81,0,*66
1483887751.45,23112,4.63,72600.3,-19.01,-49.61,-50.03,0,*66
1483887752.73,23113,4.63,72600.0,-19.01,-49.81,-50.25,0,*6D
1483887754.01,23114,4.69,72592.8,-19.01,-49.81,-50.17,0,*6B
1483887755.29,23115,4.63,72598.8,-19.01,-50.03,-50.39,0,*64
1483887756.55,23116,4.69,72612.3,-19.01,-49.97,-50.47,0,*6B
1483887757.83,23117,4.63,72612.3,-19.01,-50.03,-50.39,0,*66
1483887759.11,23118,4.69,72620.3,-19.01,-50.03,-50.47,0,*60
1483887760.43,23119,4.63,72622.5,-19.01,-50.03,-50.61,0,*65
1483887761.71,23120,4.69,72626.5,-19.03,-50.03,-50.61,0,*6D
1483887762.99,23121,4.63,72612.8,-19.03,-50.03,-50.61,0,*6C
1483887764.24,23122,4.69,72616.8,-19.03,-50.25,-50.67,0,*6D
1483887765.49,23123,4.69,72588.8,-19.03,-50.39,-50.83,0,*6B
1483887766.75,23124,4.69,72582.3,-19.03,-50.39,-50.83,0,*6C
1483887768.02,23125,4.69,72582.5,-19.03,-50.17,-50.83,0,*61
1483887769.27,23126,4.69,72592.8,-19.03,-50.25,-50.67,0,*69
1483887770.54,23127,4.69,72598.3,-19.03,-50.17,-50.61,0,*6F
1483887771.78,23128,4.69,72602.3,-19.07,-50.25,-50.67,0,*63
1483887773.03,23129,4.63,72604.0,-19.07,-50.11,-50.47,0,*67
1483887774.28,23130,4.69,72620.8,-19.07,-50.03,-50.47,0,*6C
1483887775.55,23131,4.69,72626.5,-19.07,-50.11,-50.53,0,*6B
1483887776.81,23132,4.69,72614.5,-19.03,-50.03,-50.47,0,*6A
1483887778.06,23133,4.63,72622.8,-19.03,-49.97,-50.61,0,*6A
1483887779.32,23134,4.63,72616.5,-19.07,-50.11,-50.67,0,*69
1483887780.57,23135,4.69,72610.3,-19.07,-50.11,-50.67,0,*68
1483887781.82,23136,4.69,72604.3,-19.07,-50.11,-50.67,0,*6B
1483887783.07,23137,4.69,72598.8,-19.07,-50.11,-50.67,0,*6A
1483887784.35,23138,4.63,72602.3,-19.03,-50.03,-50.61,0,*64
1483887785.63,23139,4.69,72600.5,-19.09,-50.17,-50.61,0,*6A
1483887786.9,23140,4.69,72606.3,-19.09,-50.11,-50.53,0,*63
1483887788.18,23141,4.63,72602.5,-19.09,-50.11,-50.53,0,*62
1483887789.45,23142,4.69,72594.0,-19.09,-50.17,-50.83,0,*6A
1483887790.7,23143,4.63,72592.8,-19.09,-50.17,-50.75,0,*62
1483887792.0,23144,4.69,72614.0,-19.11,-50.11,-50.33,0,*68
1483887793.25,23145,4.69,72618.8,-19.09,-49.75,-50.17,0,*6C
1483887794.51,23146,4.63,72614.0,-19.09,-49.97,-50.33,0,*65
1483887795.78,23147,4.69,72626.0,-19.09,-50.11,-50.53,0,*64
1483887797.04,23148,4.69,72626.5,-19.09,-49.97,-50.61,0,*6C
1483887798.32,23149,4.69,72626.5,-19.09,-50.11,-50.53,0,*6A
1483887799.57,23150,4.69,72616.5,-19.09,-49.89,-50.33,0,*6D
1483887800.85,23151,4.63,72600.5,-19.11,-49.89,-50.33,0,*65
1483887802.13,23152,4.63,72622.8,-19.11,-49.89,-50.33,0,*66
1483887803.36,23153,4.69,72618.0,-19.09,-49.89,-50.39,0,*64
1483887804.64,23154,4.63,72606.0,-19.11,-49.97,-50.53,0,*69
1483887805.89,23155,4.63,72604.8,-19.07,-49.89,-50.25,0,*61
1483887807.12,23156,4.63,72608.8,-19.09,-49.97,-50.39,0,*6E
1483887808.4,23157,4.63,72608.3,-19.11,-50.11,-50.39,0,*60
1483887809.7,23158,4.63,72582.3,-19.11,-50.11,-50.53,0,*63
1483887810.95,23159,4.63,72578.3,-19.09,-50.11,-50.39,0,*67
1483887812.2,23160,4.69,72576.0,-19.07,-49.89,-50.25,0,*67
1483887813.47,23161,4.63,72584.0,-19.09,-50.17,-50.53,0,*66
1483887814.75,23162,4.63,72594.0,-19.09,-50.17,-50.61,0,*64
1483887816.02,23163,4.63,72606.5,-19.09,-50.17,-50.61,0,*65
1483887817.31,23164,4.63,72618.0,-19.11,-50.17,-50.53,0,*6A
1483887818.61,23165,4.63,72618.3,-19.11,-50.17,-50.61,0,*6A
1483887819.89,23166,4.63,72626.3,-19.09,-50.11,-50.61,0,*66
1483887821.17,23167,4.63,72622.8,-19.09,-50.17,-50.61,0,*61
1483887822.44,23168,4.63,72626.8,-19.09,-50.17,-50.61,0,*6E
1483887823.72,23169,4.63,72626.5,-19.09,-50.11,-50.61,0,*69
1483887825.0,23170,4.63,72596.3,-19.11,-49.89,-50.53,0,*60
1483887826.28,23171,4.63,72604.3,-19.09,-50.11,-50.61,0,*60
1483887827.55,23172,4.63,72596.8,-19.09,-50.17,-50.83,0,*69
1483887828.83,23173,4.63,72580.8,-19.11,-50.39,-50.83,0,*6D
1483887830.1,23174,4.63,72574.3,-19.11,-50.33,-50.75,0,*69
1483887831.37,23175,4.69,72582.0,-19.11,-50.17,-50.75,0,*6E
1483887832.65,23176,4.63,72576.0,-19.13,-50.11,-50.61,0,*6C
1483887833.9,23177,4.69,72576.0,-19.13,-49.89,-50.33,0,*63
1483887835.2,23178,4.63,72604.0,-19.11,-50.11,-50.53,0,*61
1483887836.5,23179,4.63,72600.8,-19.11,-50.17,-50.83,0,*6B
1483887837.8,23180,4.63,72598.3,-19.11,-50.11,-50.53,0,*66
1483887839.08,23181,4.69,72606.5,-19.13,-50.11,-50.61,0,*64
1483887840.33,23182,4.63,72608.5,-19.13,-49.97,-50.53,0,*60
1483887841.62,23183,4.63,72602.3,-19.15,-50.25,-50.61,0,*67
1483887842.89,23184,4.63,72600.3,-19.13,-50.11,-50.53,0,*60
1483887844.17,23185,4.63,72604.5,-19.13,-50.11,-50.61,0,*60
1483887845.42,23186,4.63,72606.0,-19.13,-50.11,-50.39,0,*6E
1483887846.67,23187,4.63,72604.0,-19.13,-50.11,-50.39,0,*6F
1483887847.94,23188,4.69,72612.0,-19.13,-50.11,-50.53,0,*6C
1483887849.19,23189,4.63,72608.5,-19.13,-50.17,-50.39,0,*67
1483887850.48,23190,4.63,72612.5,-19.15,-50.25,-50.83,0,*69
1483887851.75,23191,4.69,72612.0,-19.13,-50.17,-50.33,0,*64
1483887853.03,23192,4.63,72616.5,-19.13,-50.11,-50.61,0,*66
1483887854.3,23193,4.69,72620.0,-19.15,-50.03,-50.47,0,*66
1483887855.6,23194,4.63,72612.8,-19.15,-50.17,-50.61,0,*60
1483887856.86,23195,4.63,72616.3,-19.15,-50.25,-50.67,0,*66
1483887858.16,23196,4.63,72620.3,-19.15,-50.17,-50.61,0,*62
1483887859.38,23197,4.63,72626.3,-19.13,-49.97,-50.39,0,*68
1483887860.63,23198,4.63,72624.8,-19.15,-49.97,-50.47,0,*68
1483887861.86,23199,4.63,72624.3,-19.13,-49.89,-50.39,0,*69
1483887863.16,23200,4.63,72632.5,-19.15,-50.03,-50.61,0,*6B
1483887864.42,23201,4.69,72640.8,-19.15,-49.97,-50.39,0,*62
1483887865.69,23202,4.63,72642.3,-19.15,-50.03,-50.47,0,*6D
1483887866.96,23203,4.63,72644.3,-19.15,-50.03,-50.47,0,*6C
1483887868.19,23204,4.63,72638.0,-19.13,-49.97,-50.39,0,*61
1483887869.44,23205,4.63,72632.8,-19.15,-49.97,-50.47,0,*6F
1483887870.67,23206,4.69,72634.0,-19.13,-49.89,-50.39,0,*6C
1483887871.97,23207,4.63,72628.0,-19.15,-50.03,-50.61,0,*6C
1483887873.23,23208,4.63,72628.3,-19.15,-50.17,-50.47,0,*62
1483887874.51,23209,4.63,72634.0,-19.15,-50.03,-50.47,0,*66
1483887875.81,23210,4.63,72634.8,-19.15,-50.03,-50.61,0,*6A
1483887877.06,23211,4.63,72630.3,-19.15,-49.75,-50.39,0,*6F
1483887878.28,23212,4.63,72634.8,-19.13,-49.67,-49.97,0,*65
1483887879.53,23213,4.63,72634.0,-19.13,-49.75,-50.17,0,*67
1483887880.77,23214,4.63,72636.3,-19.13,-49.75,-50.17,0,*60
1483887882.01,23215,4.63,72638.0,-19.13,-49.67,-50.11,0,*64
1483887883.31,23216,4.63,72632.8,-19.15,-49.53,-50.03,0,*65
1483887884.58,23217,4.63,72644.5,-19.15,-49.53,-49.97,0,*61
1483887885.84,23218,4.63,72638.8,-19.13,-49.53,-50.11,0,*6E
1483887887.09,23219,4.63,72630.8,-19.13,-49.53,-49.97,0,*69
1483887888.37,23220,4.63,72622.3,-19.15,-49.61,-50.25,0,*65
1483887889.62,23221,4.69,72622.8,-19.13,-49.47,-49.89,0,*68
1483887890.84,23222,4.63,72616.5,-19.13,-49.89,-50.39,0,*6A
1483887892.14,23223,4.63,72608.0,-19.15,-50.17,-50.53,0,*6E
1483887893.38,23224,4.63,72598.0,-19.13,-50.33,-50.75,0,*6D
1483887894.63,23225,4.63,72584.5,-19.13,-50.39,-50.83,0,*6F
1483887895.88,23226,4.69,72576.3,-19.13,-50.39,-50.83,0,*6C
1483887897.13,23227,4.63,72574.8,-19.13,-50.39,-50.83,0,*6D
1483887898.41,23228,4.63,72572.3,-19.13,-50.33,-50.83,0,*68
1483887899.69,23229,4.63,72578.3,-19.15,-50.25,-50.83,0,*68
1483887900.99,23230,4.69,72566.3,-19.15,-50.17,-50.83,0,*61
1483887902.25,23231,4.69,72566.5,-19.15,-50.25,-50.89,0,*6B
1483887903.49,23232,4.63,72570.8,-19.13,-50.25,-50.89,0,*6E
1483887904.78,23233,4.63,72568.8,-19.15,-50.17,-50.61,0,*6E
1483887906.06,23234,4.63,72586.8,-19.13,-50.17,-50.61,0,*6F
1483887907.33,23235,4.63,72592.3,-19.13,-50.17,-50.83,0,*62
1483887908.6,23236,4.63,72600.0,-19.15,-50.39,-50.83,0,*6B
1483887909.85,23237,4.69,72616.0,-19.15,-50.39,-50.89,0,*60
1483887911.08,23238,4.69,72614.5,-19.15,-50.47,-50.89,0,*66
1483887912.33,23239,4.63,72602.8,-19.13,-50.39,-50.83,0,*62
1483887913.58,23240,4.63,72604.3,-19.15,-50.39,-50.89,0,*60
1483887914.83,23241,4.63,72604.0,-19.13,-50.39,-50.83,0,*6D
1483887916.06,23242,4.63,72606.3,-19.19,-50.47,-50.89,0,*67
1483887917.3,23243,4.69,72614.0,-19.19,-50.47,-50.97,0,*69
1483887918.54,23244,4.63,72610.5,-19.19,-50.47,-50.97,0,*6E
1483887919.78,23245,4.63,72602.3,-19.19,-50.47,-50.97,0,*6F
1483887921.02,23246,4.63,72598.0,-19.19,-50.47,-50.97,0,*6C
1483887922.26,23247,4.63,72600.5,-19.19,-50.47,-50.97,0,*6D
1483887923.5,23248,4.63,72574.5,-19.19,-50.47,-50.97,0,*62
1483887924.77,23249,4.63,72570.8,-19.19,-50.53,-50.97,0,*66
1483887926.01,23250,4.63,72572.0,-19.15,-50.39,-50.89,0,*61
1483887927.26,23251,4.63,72582.3,-19.15,-50.39,-50.89,0,*60
1483887928.49,23252,4.69,72582.3,-19.19,-50.47,-50.89,0,*66
1483887929.73,23253,4.63,72570.8,-19.19,-50.47,-50.97,0,*68
1483887930.97,23254,4.63,72570.3,-19.19,-50.47,-50.97,0,*6F
1483887932.26,23255,4.63,72574.0,-19.15,-50.17,-50.83,0,*62
1483887933.51,23256,4.63,72572.5,-19.15,-50.39,-50.89,0,*67
1483887934.78,23257,4.63,72586.0,-19.19,-50.33,-50.89,0,*60
1483887936.06,23258,4.69,72586.5,-19.19,-50.33,-50.97,0,*60
1483887937.3,23259,4.69,72582.8,-19.19,-50.47,-50.97,0,*62
1483887938.57,23260,4.63,72578.5,-19.19,-50.33,-50.89,0,*64
1483887939.78,23261,4.63,72580.8,-19.21,-50.47,-50.97,0,*62
1483887941.02,23262,4.63,72598.8,-19.19,-50.47,-50.97,0,*6A
1483887942.29,23263,4.63,72598.8,-19.19,-50.33,-50.89,0,*67
1483887943.57,23264,4.63,72594.8,-19.19,-50.11,-50.67,0,*60
1483887944.82,23265,4.63,72594.0,-19.21,-50.33,-50.67,0,*6A
1483887946.09,23266,4.63,72592.3,-19.19,-50.33,-50.75,0,*61
1483887947.32,23267,4.69,72598.8,-19.19,-50.47,-50.89,0,*60
1483887948.54,23268,4.63,72598.3,-19.21,-50.47,-50.97,0,*6B
1483887949.78,23269,4.63,72594.3,-19.19,-50.47,-50.89,0,*6E
1483887951.02,23270,4.69,72590.5,-19.21,-50.33,-50.89,0,*6E
1483887952.3,23271,4.63,72594.5,-19.19,-50.33,-50.97,0,*6B
1483887953.54,23272,4.63,72590.3,-19.19,-50.47,-50.97,0,*6B
1483887954.78,23273,4.63,72590.5,-19.21,-50.33,-50.89,0,*6D
1483887956.02,23274,4.63,72590.0,-19.21,-50.25,-50.89,0,*6D
1483887957.27,23275,4.63,72590.5,-19.21,-50.33,-50.89,0,*6B
1483887958.54,23276,4.63,72594.8,-19.19,-50.33,-50.75,0,*60
1483887959.78,23277,4.63,72598.8,-19.21,-50.25,-50.89,0,*6E
1483887961.05,23278,4.63,72596.0,-19.19,-50.25,-50.75,0,*69
1483887962.3,23279,4.63,72598.3,-19.21,-50.33,-50.97,0,*68
1483887963.54,23280,4.63,72596.3,-19.21,-50.33,-50.89,0,*61
1483887964.8,23281,4.63,72606.3,-19.21,-50.33,-50.97,0,*6F
1483887966.01,23282,4.63,72604.5,-19.21,-50.47,-50.97,0,*6F
1483887967.23,23283,4.63,72606.8,-19.21,-50.47,-50.97,0,*6E
1483887968.44,23284,4.63,72604.8,-19.21,-50.47,-50.97,0,*69
1483887969.66,23285,4.63,72596.0,-19.21,-50.47,-50.97,0,*68
1483887970.87,23286,4.63,72610.3,-19.21,-50.47,-50.97,0,*6B
1483887972.12,23287,4.63,72618.3,-19.21,-50.25,-50.75,0,*62
1483887973.36,23288,4.63,72614.8,-19.21,-50.33,-50.89,0,*69
1483887974.61,23289,4.63,72612.3,-19.21,-50.33,-50.75,0,*6B
1483887975.86,23290,4.63,72606.5,-19.21,-50.33,-50.67,0,*60
1483887977.1,23291,4.63,72606.8,-19.21,-50.25,-50.75,0,*65
1483887978.36,23292,4.63,72608.3,-19.23,-50.39,-50.97,0,*65
1483887979.63,23293,4.63,72608.8,-19.23,-50.33,-50.97,0,*6E
1483887980.88,23294,4.63,72612.8,-19.21,-50.33,-50.97,0,*6B
1483887982.16,23295,4.63,72620.5,-19.23,-50.11,-50.67,0,*67
1483887983.44,23296,4.63,72622.5,-19.23,-49.81,-50.53,0,*62
1483887984.71,23297,4.63,72616.3,-19.23,-50.11,-50.75,0,*66
1483887985.98,23298,4.69,72632.5,-19.23,-50.25,-50.75,0,*6E
1483887987.27,23299,4.63,72636.8,-19.23,-50.25,-50.53,0,*6B
1483887988.57,23300,4.63,72622.8,-19.23,-50.11,-50.53,0,*6D
1483887989.82,23301,4.63,72612.5,-19.23,-49.89,-50.47,0,*60
1483887991.07,23302,4.69,72614.8,-19.23,-49.89,-50.47,0,*63
1483887992.37,23303,4.63,72592.0,-19.23,-50.11,-50.53,0,*6E
1483887993.67,23304,4.63,72598.3,-19.23,-50.11,-50.53,0,*69
1483887994.94,23305,4.63,72586.8,-19.23,-50.33,-50.67,0,*6F
1483887996.22,23306,4.63,72580.8,-19.23,-49.97,-50.53,0,*6D
1483887997.49,23307,4.63,72600.0,-19.23,-49.67,-50.25,0,*62
1483887998.75,23308,4.63,72588.3,-19.23,-49.97,-50.39,0,*6F
1483888000.02,23309,4.63,72604.8,-19.23,-49.89,-50.33,0,*6B
1483888001.3,23310,4.63,72608.3,-19.23,-49.67,-50.25,0,*64
1483888002.57,23311,4.63,72588.0,-19.23,-49.81,-50.25,0,*6D
1483888003.85,23312,4.63,72602.8,-19.23,-49.81,-50.33,0,*69
1483888005.13,23313,4.63,72628.3,-19.23,-49.89,-50.33,0,*60
1483888006.41,23314,4.63,72618.8,-19.23,-49.89,-50.33,0,*67
1483888007.68,23315,4.63,72624.8,-19.21,-50.11,-50.53,0,*6B
1483888008.95,23316,4.63,72624.3,-19.21,-50.25,-50.53,0,*6F
1483888010.23,23317,4.63,72628.8,-19.21,-50.03,-50.33,0,*6C
1483888011.52,23318,4.63,72626.0,-19.19,-50.11,-50.53,0,*6D
1483888012.8,23319,4.63,72612.8,-19.21,-50.11,-50.53,0,*67
1483888014.07,23320,4.63,72592.5,-19.23,-50.25,-50.67,0,*6F
1483888015.37,23321,4.63,72596.0,-19.23,-50.11,-50.53,0,*6E
1483888016.67,23322,4.63,72610.0,-19.23,-50.03,-50.33,0,*68
1483888017.95,23323,4.63,72616.8,-19.23,-49.81,-50.33,0,*6B
1483888019.23,23324,4.63,72614.3,-19.23,-49.81,-50.33,0,*6C
1483888020.52,23325,4.63,72614.8,-19.23,-49.61,-50.03,0,*60
1483888021.8,23326,4.63,72604.0,-19.23,-50.03,-50.47,0,*6F
1483888023.08,23327,4.63,72622.5,-19.23,-50.03,-50.47,0,*6E
1483888024.32,23328,4.63,72620.0,-19.21,-50.11,-50.47,0,*60
1483888025.58,23329,4.63,72620.3,-19.21,-49.89,-50.33,0,*6B
1483888026.85,23330,4.63,72624.0,-19.21,-50.11,-50.53,0,*6C
1483888028.1,23331,4.63,72620.3,-19.21,-50.11,-50.47,0,*68
1483888029.34,23332,4.63,72614.5,-19.21,-50.11,-50.47,0,*6B
1483888030.62,23333,4.63,72612.3,-19.21,-50.03,-50.53,0,*6C
1483888031.87,23334,4.63,72608.5,-19.21,-50.11,-50.47,0,*6D
1483888033.12,23335,4.63,72608.0,-19.21,-50.11,-50.67,0,*6E
1483888034.39,23336,4.63,72630.3,-19.23,-50.25,-50.67,0,*68
1483888035.63,23337,4.63,72630.3,-19.21,-50.25,-50.67,0,*6B
1483888036.9,23338,4.63,72638.5,-19.21,-50.11,-50.53,0,*64
1483888038.15,23339,4.63,72634.8,-19.21,-50.03,-50.47,0,*63
1483888039.43,23340,4.63,72628.5,-19.21,-50.33,-50.53,0,*6B
1483888040.7,23341,4.63,72634.3,-19.23,-50.33,-50.75,0,*6C
1483888042.0,23342,4.63,72636.8,-19.23,-50.03,-50.53,0,*68
1483888043.28,23343,4.63,72634.8,-19.23,-49.81,-50.25,0,*6A
1483888044.56,23344,4.63,72636.0,-19.23,-49.89,-50.33,0,*62
1483888045.83,23345,4.63,72628.0,-19.23,-50.03,-50.47,0,*6A
1483888047.14,23346,4.63,72630.8,-19.23,-50.03,-50.53,0,*6C
1483888048.41,23347,4.63,72622.8,-19.23,-49.89,-50.53,0,*67
1483888049.69,23348,4.63,72618.8,-19.23,-50.03,-50.47,0,*67
1483888050.96,23349,4.63,72604.8,-19.23,-49.81,-50.25,0,*60
1483888052.24,23350,4.63,72606.0,-19.23,-49.81,-50.25,0,*68
1483888053.52,23351,4.63,72610.0,-19.23,-49.89,-50.33,0,*66
1483888054.77,23352,4.63,72600.8,-19.21,-49.89,-50.33,0,*67
1483888056.02,23353,4.63,72612.8,-19.21,-49.89,-50.11,0,*66
1483888057.26,23354,4.63,72612.8,-19.21,-49.89,-50.25,0,*66
1483888058.52,23355,4.63,72600.5,-19.21,-49.89,-50.33,0,*60
1483888059.79,23356,4.63,72608.8,-19.21,-50.11,-50.53,0,*6C
1483888061.04,23357,4.63,72608.8,-19.21,-50.11,-50.67,0,*6A
1483888062.33,23358,4.63,72598.5,-19.19,-50.25,-50.53,0,*6E
1483888063.62,23359,4.63,72606.3,-19.23,-50.25,-50.53,0,*66
1483888064.86,23360,4.63,72608.8,-19.21,-50.25,-50.67,0,*69
1483888066.11,23361,4.63,72610.5,-19.21,-50.25,-50.67,0,*68
1483888067.37,23362,4.63,72608.5,-19.21,-50.25,-50.53,0,*6C
1483888068.62,23363,4.63,72602.0,-19.21,-50.33,-50.67,0,*6D
1483888069.86,23364,4.63,72600.5,-19.21,-50.25,-50.47,0,*6F
1483888071.11,23365,4.63,72596.8,-19.21,-50.11,-50.47,0,*69
1483888072.37,23366,4.63,72602.3,-19.21,-50.25,-50.53,0,*68
1483888073.64,23367,4.63,72598.0,-19.19,-50.25,-50.67,0,*65
1483888074.88,23368,4.63,72596.8,-19.21,-50.25,-50.67,0,*61
1483888076.12,23369,4.63,72596.3,-19.21,-50.25,-50.67,0,*60
1483888077.39,23370,4.63,72598.3,-19.21,-50.33,-50.53,0,*68
1483888078.66,23371,4.63,72600.5,-19.23,-50.25,-50.75,0,*68
1483888079.94,23372,4.63,72604.3,-19.23,-50.33,-50.89,0,*6F
1483888081.21,23373,4.63,72602.0,-19.23,-50.33,-50.75,0,*6D
1483888082.48,23374,4.63,72594.8,-19.23,-50.33,-50.75,0,*6A
1483888083.73,23375,4.63,72584.5,-19.21,-50.33,-50.75,0,*69
1483888085.03,23376,4.63,72592.3,-19.23,-50.33,-50.83,0,*61
1483888086.31,23377,4.63,72596.8,-19.23,-50.33,-50.67,0,*6A
1483888087.59,23378,4.63,72596.0,-19.23,-50.39,-50.61,0,*69
1483888088.89,23379,4.63,72592.8,-19.23,-50.33,-50.83,0,*6E
1483888090.15,23380,4.63,72598.3,-19.23,-50.25,-50.67,0,*65
1483888091.45,23381,4.63,72600.5,-19.23,-50.17,-50.53,0,*62
1483888092.7,23382,4.63,72608.8,-19.23,-49.89,-50.47,0,*6B
1483888093.96,23383,4.63,72598.8,-19.23,-50.25,-50.47,0,*64
1483888095.26,23384,4.63,72604.8,-19.23,-50.11,-50.53,0,*61
1483888096.56,23385,4.63,72604.0,-19.23,-50.11,-50.53,0,*60
1483888097.83,23386,4.63,72610.3,-19.23,-50.11,-50.47,0,*66
1483888099.13,23387,4.63,72606.5,-19.23,-50.17,-50.53,0,*64
1483888100.4,23388,4.63,72604.3,-19.23,-49.81,-50.25,0,*6D
1483888101.67,23389,4.63,72598.5,-19.23,-49.75,-50.17,0,*66
1483888102.95,23390,4.63,72598.5,-19.23,-49.89,-50.25,0,*6C
1483888104.22,23391,4.63,72586.8,-19.23,-49.81,-50.25,0,*65
1483888105.53,23392,4.63,72584.3,-19.23,-50.03,-50.25,0,*64
1483888106.8,23393,4.63,72574.3,-19.23,-49.89,-50.25,0,*6F